| time (UTC) | temp C | wind direction | speed KPH | gust KPH | rain 1hr cm | rain 24hr cm | rain mn cm | humidity % | barometer mb |
| 20260504150819 | 18 | 71 | 8.0 | 20.9 | 0.00 | 0.00 | 0.00 | 26 | 1014.3 |
| 20260504150328 | 19 | 360 | 6.4 | 16.1 | 0.00 | 0.00 | 0.00 | 27 | 1014.0 |
| 20260504141322 | 17 | 360 | 6.4 | 17.7 | 0.00 | 0.00 | 0.00 | 35 | 1014.3 |
| 20260504140846 | 16 | 360 | 6.4 | 19.3 | 0.00 | 0.00 | 0.00 | 36 | 1014.3 |
| 20260504140335 | 16 | 223 | 8.0 | 19.3 | 0.00 | 0.00 | 0.00 | 36 | 1014.3 |
| 20260504130345 | 13 | 229 | 9.7 | 22.5 | 0.00 | 0.00 | 0.00 | 47 | 1014.7 |
| 20260504120311 | 11 | 223 | 4.8 | 16.1 | 0.00 | 0.00 | 0.00 | 55 | 1015.0 |
| 20260504110332 | 8 | 360 | 1.6 | 4.8 | 0.00 | 0.00 | 0.00 | 57 | 1015.1 |
| 20260504100322 | 7 | 360 | 0.0 | 6.4 | 0.00 | 0.00 | 0.00 | 52 | 1015.2 |
| 20260504081835 | 8 | 5 | 1.6 | 6.4 | 0.00 | 0.00 | 0.00 | 48 | 1015.2 |
| 20260504081515 | 7 | 5 | 0.0 | 6.4 | 0.00 | 0.00 | 0.00 | 47 | 1015.3 |
| 20260504081345 | 8 | 5 | 1.6 | 6.4 | 0.00 | 0.00 | 0.00 | 47 | 1015.2 |
| 20260504080819 | 8 | 9 | 1.6 | 6.4 | 0.00 | 0.00 | 0.00 | 47 | 1015.1 |
| 20260504080329 | 8 | 5 | 3.2 | 8.0 | 0.00 | 0.00 | 0.00 | 46 | 1015.1 |
| 20260504070332 | 7 | 360 | 1.6 | 4.8 | 0.00 | 0.00 | 0.00 | 43 | 1015.1 |
| 20260504050314 | 6 | 11 | 0.0 | 1.6 | 0.00 | 0.00 | 0.00 | 50 | 1015.1 |
| 20260504045846 | 6 | 11 | 0.0 | 1.6 | 0.00 | 0.00 | 0.00 | 50 | 1015.1 |
| 20260504045309 | 6 | 13 | 0.0 | 1.6 | 0.00 | 0.00 | 0.00 | 50 | 1015.1 |
| 20260504044813 | 6 | 10 | 0.0 | 0.0 | 0.00 | 0.00 | 0.00 | 49 | 1015.1 |
| 20260504044522 | 6 | 10 | 0.0 | 0.0 | 0.00 | 0.00 | 0.00 | 49 | 1015.0 |
| 20260504044325 | 6 | 10 | 0.0 | 0.0 | 0.00 | 0.00 | 0.00 | 49 | 1015.0 |
| 20260504043829 | 6 | 10 | 0.0 | 1.6 | 0.00 | 0.00 | 0.00 | 49 | 1015.0 |
| 20260504043314 | 7 | 10 | 0.0 | 1.6 | 0.00 | 0.00 | 0.00 | 49 | 1014.9 |
| 20260504043037 | 6 | 11 | 0.0 | 1.6 | 0.00 | 0.00 | 0.00 | 48 | 1015.0 |
| 20260504042819 | 7 | 11 | 0.0 | 1.6 | 0.00 | 0.00 | 0.00 | 48 | 1014.8 |
| 20260504042331 | 7 | 5 | 0.0 | 0.0 | 0.00 | 0.00 | 0.00 | 48 | 1014.7 |
| 20260504041814 | 7 | 5 | 0.0 | 1.6 | 0.00 | 0.00 | 0.00 | 47 | 1014.7 |
| 20260504041534 | 7 | 5 | 0.0 | 1.6 | 0.00 | 0.00 | 0.00 | 47 | 1014.9 |
| 20260504041323 | 7 | 5 | 0.0 | 1.6 | 0.00 | 0.00 | 0.00 | 47 | 1014.7 |
| 20260504040848 | 7 | 5 | 0.0 | 1.6 | 0.00 | 0.00 | 0.00 | 46 | 1014.7 |
| 20260504040311 | 7 | 5 | 0.0 | 1.6 | 0.00 | 0.00 | 0.00 | 46 | 1014.6 |
| 20260504040012 | 7 | 5 | 0.0 | 1.6 | 0.00 | 0.00 | 0.00 | 46 | 1014.8 |
| 20260504035841 | 7 | 5 | 0.0 | 1.6 | 0.00 | 0.00 | 0.00 | 46 | 1014.7 |
| 20260504035352 | 7 | 5 | 0.0 | 1.6 | 0.00 | 0.00 | 0.00 | 45 | 1014.6 |
| 20260504034816 | 7 | 9 | 0.0 | 0.0 | 0.00 | 0.00 | 0.00 | 44 | 1014.6 |
| 20260504034552 | 7 | 9 | 0.0 | 0.0 | 0.00 | 0.00 | 0.00 | 44 | 1014.7 |
| 20260504034319 | 8 | 9 | 0.0 | 0.0 | 0.00 | 0.00 | 0.00 | 44 | 1014.6 |
| 20260504033830 | 8 | 9 | 0.0 | 1.6 | 0.00 | 0.00 | 0.00 | 43 | 1014.5 |
| 20260504033335 | 8 | 9 | 0.0 | 1.6 | 0.00 | 0.00 | 0.00 | 43 | 1014.6 |
| 20260504033045 | 8 | 9 | 0.0 | 0.0 | 0.00 | 0.00 | 0.00 | 42 | 1014.6 |
| 20260504032818 | 8 | 9 | 0.0 | 1.6 | 0.00 | 0.00 | 0.00 | 42 | 1014.5 |
| 20260504032329 | 8 | 9 | 0.0 | 1.6 | 0.00 | 0.00 | 0.00 | 41 | 1014.5 |
| 20260504031834 | 8 | 9 | 0.0 | 1.6 | 0.00 | 0.00 | 0.00 | 41 | 1014.4 |
| 20260504031545 | 8 | 9 | 0.0 | 1.6 | 0.00 | 0.00 | 0.00 | 40 | 1014.6 |
| 20260504031322 | 8 | 9 | 0.0 | 3.2 | 0.00 | 0.00 | 0.00 | 40 | 1014.5 |
| 20260504030827 | 9 | 9 | 0.0 | 3.2 | 0.00 | 0.00 | 0.00 | 40 | 1014.5 |
| 20260504030312 | 9 | 9 | 0.0 | 1.6 | 0.00 | 0.00 | 0.00 | 39 | 1014.3 |
| 20260504030041 | 9 | 9 | 0.0 | 3.2 | 0.00 | 0.00 | 0.00 | 39 | 1014.5 |
| 20260504025816 | 9 | 9 | 0.0 | 3.2 | 0.00 | 0.00 | 0.00 | 39 | 1014.4 |
| 20260504025326 | 9 | 9 | 0.0 | 3.2 | 0.00 | 0.00 | 0.00 | 38 | 1014.4 |
| 20260504024811 | 10 | 9 | 0.0 | 1.6 | 0.00 | 0.00 | 0.00 | 37 | 1014.4 |
| 20260504024554 | 9 | 9 | 0.0 | 1.6 | 0.00 | 0.00 | 0.00 | 37 | 1014.5 |
| 20260504024316 | 10 | 9 | 0.0 | 3.2 | 0.00 | 0.00 | 0.00 | 37 | 1014.4 |
| 20260504023820 | 10 | 9 | 0.0 | 3.2 | 0.00 | 0.00 | 0.00 | 36 | 1014.4 |
| 20260504023331 | 10 | 9 | 0.0 | 4.8 | 0.00 | 0.00 | 0.00 | 36 | 1014.6 |
| 20260504023007 | 10 | 9 | 0.0 | 4.8 | 0.00 | 0.00 | 0.00 | 35 | 1014.6 |
| 20260504022815 | 10 | 9 | 1.6 | 4.8 | 0.00 | 0.00 | 0.00 | 34 | 1014.4 |
| 20260504022321 | 10 | 10 | 0.0 | 4.8 | 0.00 | 0.00 | 0.00 | 33 | 1014.5 |
| 20260504021852 | 10 | 11 | 3.2 | 4.8 | 0.00 | 0.00 | 0.00 | 33 | 1014.5 |
| 20260504021612 | 10 | 5 | 1.6 | 3.2 | 0.00 | 0.00 | 0.00 | 34 | 1014.7 |
| 20260504021314 | 10 | 5 | 0.0 | 3.2 | 0.00 | 0.00 | 0.00 | 34 | 1014.5 |
| 20260504020819 | 11 | 5 | 0.0 | 3.2 | 0.00 | 0.00 | 0.00 | 33 | 1014.5 |
| 20260504020330 | 11 | 5 | 0.0 | 6.4 | 0.00 | 0.00 | 0.00 | 33 | 1014.5 |
| 20260504020007 | 10 | 5 | 0.0 | 6.4 | 0.00 | 0.00 | 0.00 | 31 | 1014.5 |
| 20260504015815 | 11 | 9 | 3.2 | 6.4 | 0.00 | 0.00 | 0.00 | 31 | 1014.4 |
| 20260504015348 | 11 | 5 | 3.2 | 6.4 | 0.00 | 0.00 | 0.00 | 31 | 1014.4 |
| 20260504014811 | 11 | 360 | 1.6 | 4.8 | 0.00 | 0.00 | 0.00 | 32 | 1014.4 |
| 20260504014600 | 11 | 360 | 0.0 | 4.8 | 0.00 | 0.00 | 0.00 | 32 | 1014.5 |
| 20260504014314 | 11 | 360 | 1.6 | 6.4 | 0.00 | 0.00 | 0.00 | 31 | 1014.4 |
| 20260504013845 | 11 | 360 | 1.6 | 6.4 | 0.00 | 0.00 | 0.00 | 30 | 1014.3 |
| 20260504013328 | 11 | 360 | 3.2 | 6.4 | 0.00 | 0.00 | 0.00 | 30 | 1014.3 |
| 20260504013056 | 11 | 360 | 0.0 | 4.8 | 0.00 | 0.00 | 0.00 | 30 | 1014.5 |
| 20260504012811 | 11 | 360 | 1.6 | 4.8 | 0.00 | 0.00 | 0.00 | 30 | 1014.4 |
| 20260504012316 | 12 | 360 | 1.6 | 4.8 | 0.00 | 0.00 | 0.00 | 29 | 1014.3 |
| 20260504011827 | 12 | 360 | 1.6 | 6.4 | 0.00 | 0.00 | 0.00 | 28 | 1014.1 |
| 20260504011604 | 11 | 360 | 0.0 | 6.4 | 0.00 | 0.00 | 0.00 | 28 | 1014.1 |
| 20260504011309 | 12 | 360 | 3.2 | 6.4 | 0.00 | 0.00 | 0.00 | 28 | 1014.0 |
| 20260504010814 | 12 | 5 | 3.2 | 8.0 | 0.00 | 0.00 | 0.00 | 28 | 1014.0 |
| 20260504010345 | 12 | 360 | 1.6 | 8.0 | 0.00 | 0.00 | 0.00 | 28 | 1013.9 |
| 20260504010047 | 12 | 360 | 3.2 | 8.0 | 0.00 | 0.00 | 0.00 | 28 | 1014.0 |
| 20260504005828 | 12 | 360 | 1.6 | 6.4 | 0.00 | 0.00 | 0.00 | 28 | 1013.9 |
| 20260504005339 | 12 | 360 | 3.2 | 8.0 | 0.00 | 0.00 | 0.00 | 27 | 1013.8 |
| 20260504004822 | 12 | 360 | 3.2 | 8.0 | 0.00 | 0.00 | 0.00 | 26 | 1013.9 |
| 20260504004542 | 12 | 360 | 1.6 | 8.0 | 0.00 | 0.00 | 0.00 | 26 | 1013.9 |
| 20260504004327 | 12 | 360 | 3.2 | 6.4 | 0.00 | 0.00 | 0.00 | 26 | 1013.8 |
| 20260504003811 | 12 | 360 | 1.6 | 4.8 | 0.00 | 0.00 | 0.00 | 26 | 1013.8 |
| 20260504003322 | 13 | 360 | 1.6 | 4.8 | 0.00 | 0.00 | 0.00 | 26 | 1013.5 |
| 20260504003055 | 12 | 360 | 1.6 | 6.4 | 0.00 | 0.00 | 0.00 | 26 | 1013.7 |
| 20260504002826 | 13 | 360 | 1.6 | 6.4 | 0.00 | 0.00 | 0.00 | 25 | 1013.4 |
| 20260504002338 | 13 | 360 | 1.6 | 6.4 | 0.00 | 0.00 | 0.00 | 25 | 1013.5 |
| 20260504001820 | 13 | 360 | 1.6 | 12.9 | 0.00 | 0.00 | 0.00 | 24 | 1013.4 |
| 20260504001606 | 13 | 360 | 1.6 | 12.9 | 0.00 | 0.00 | 0.00 | 24 | 1013.6 |
| 20260504001322 | 13 | 360 | 3.2 | 12.9 | 0.00 | 0.00 | 0.00 | 24 | 1013.3 |
| 20260504000834 | 13 | 360 | 1.6 | 9.7 | 0.00 | 0.00 | 0.00 | 24 | 1013.4 |
| 20260504000319 | 13 | 360 | 6.4 | 9.7 | 0.00 | 0.00 | 0.00 | 23 | 1013.3 |
| 20260504000054 | 13 | 360 | 1.6 | 9.7 | 0.00 | 0.00 | 0.00 | 23 | 1013.4 |
| 20260503235823 | 13 | 5 | 3.2 | 12.9 | 0.00 | 0.00 | 0.00 | 23 | 1013.3 |
| 20260503235334 | 14 | 360 | 4.8 | 14.5 | 0.00 | 0.00 | 0.00 | 22 | 1013.2 |
| 20260503234819 | 14 | 360 | 4.8 | 16.1 | 0.00 | 0.00 | 0.00 | 22 | 1013.2 |
| 20260503234509 | 14 | 360 | 8.0 | 16.1 | 0.00 | 0.00 | 0.00 | 22 | 1013.3 |
| 20260503234324 | 14 | 360 | 4.8 | 16.1 | 0.00 | 0.00 | 0.00 | 22 | 1013.1 |
| 20260503233827 | 14 | 360 | 6.4 | 12.9 | 0.00 | 0.00 | 0.00 | 22 | 1013.1 |
| 20260503233312 | 15 | 360 | 6.4 | 17.7 | 0.00 | 0.00 | 0.00 | 22 | 1013.0 |
| 20260503233019 | 14 | 360 | 3.2 | 17.7 | 0.00 | 0.00 | 0.00 | 22 | 1013.2 |
| 20260503232822 | 15 | 55 | 4.8 | 17.7 | 0.00 | 0.00 | 0.00 | 21 | 1013.1 |
| 20260503232326 | 15 | 360 | 6.4 | 25.7 | 0.00 | 0.00 | 0.00 | 21 | 1013.1 |
| 20260503231809 | 15 | 360 | 16.1 | 25.7 | 0.00 | 0.00 | 0.00 | 21 | 1013.0 |
| 20260503231519 | 15 | 360 | 11.3 | 20.9 | 0.00 | 0.00 | 0.00 | 20 | 1013.2 |
| 20260503231315 | 15 | 360 | 9.7 | 24.1 | 0.00 | 0.00 | 0.00 | 20 | 1013.1 |
| 20260503230820 | 15 | 360 | 8.0 | 25.7 | 0.00 | 0.00 | 0.00 | 20 | 1013.0 |
| 20260503230325 | 15 | 360 | 14.5 | 25.7 | 0.00 | 0.00 | 0.00 | 20 | 1013.0 |
| 20260503230031 | 15 | 360 | 11.3 | 22.5 | 0.00 | 0.00 | 0.00 | 20 | 1013.1 |
| 20260503225834 | 15 | 69 | 9.7 | 19.3 | 0.00 | 0.00 | 0.00 | 20 | 1012.9 |
| 20260503225319 | 15 | 360 | 6.4 | 24.1 | 0.00 | 0.00 | 0.00 | 20 | 1012.9 |
| 20260503224824 | 15 | 360 | 8.0 | 20.9 | 0.00 | 0.00 | 0.00 | 20 | 1012.9 |
| 20260503224549 | 15 | 360 | 9.7 | 20.9 | 0.00 | 0.00 | 0.00 | 20 | 1013.0 |
| 20260503224312 | 15 | 61 | 8.0 | 32.2 | 0.00 | 0.00 | 0.00 | 20 | 1013.0 |
| 20260503223817 | 15 | 5 | 11.3 | 32.2 | 0.00 | 0.00 | 0.00 | 19 | 1012.9 |
| 20260503223328 | 15 | 88 | 11.3 | 29.0 | 0.00 | 0.00 | 0.00 | 19 | 1012.8 |
| 20260503223101 | 15 | 80 | 8.0 | 25.7 | 0.00 | 0.00 | 0.00 | 20 | 1013.1 |
| 20260503222812 | 15 | 58 | 9.7 | 25.7 | 0.00 | 0.00 | 0.00 | 19 | 1012.8 |
| 20260503222316 | 15 | 360 | 11.3 | 22.5 | 0.00 | 0.00 | 0.00 | 19 | 1012.9 |
| 20260503221827 | 15 | 360 | 11.3 | 29.0 | 0.00 | 0.00 | 0.00 | 19 | 1013.0 |
| 20260503221503 | 15 | 11 | 16.1 | 29.0 | 0.00 | 0.00 | 0.00 | 18 | 1013.0 |
| 20260503221311 | 15 | 360 | 11.3 | 27.4 | 0.00 | 0.00 | 0.00 | 19 | 1012.9 |
| 20260503220814 | 15 | 360 | 14.5 | 27.4 | 0.00 | 0.00 | 0.00 | 19 | 1012.9 |
| 20260503220319 | 15 | 355 | 6.4 | 33.8 | 0.00 | 0.00 | 0.00 | 19 | 1012.9 |
| 20260503220018 | 15 | 5 | 8.0 | 33.8 | 0.00 | 0.00 | 0.00 | 19 | 1013.1 |
| 20260503215829 | 15 | 51 | 11.3 | 33.8 | 0.00 | 0.00 | 0.00 | 19 | 1012.9 |
| 20260503215313 | 15 | 360 | 14.5 | 25.7 | 0.00 | 0.00 | 0.00 | 19 | 1012.9 |
| 20260503214817 | 15 | 360 | 6.4 | 27.4 | 0.00 | 0.00 | 0.00 | 19 | 1012.9 |
| 20260503214535 | 15 | 360 | 17.7 | 27.4 | 0.00 | 0.00 | 0.00 | 18 | 1013.0 |
| 20260503214328 | 15 | 360 | 19.3 | 27.4 | 0.00 | 0.00 | 0.00 | 18 | 1012.8 |
| 20260503213813 | 15 | 5 | 19.3 | 29.0 | 0.00 | 0.00 | 0.00 | 18 | 1012.8 |
| 20260503213336 | 15 | 360 | 11.3 | 24.1 | 0.00 | 0.00 | 0.00 | 18 | 1012.9 |
| 20260503213037 | 15 | 360 | 12.9 | 22.5 | 0.00 | 0.00 | 0.00 | 18 | 1013.0 |
| 20260503212826 | 15 | 360 | 14.5 | 22.5 | 0.00 | 0.00 | 0.00 | 18 | 1012.7 |
| 20260503212309 | 15 | 360 | 9.7 | 32.2 | 0.00 | 0.00 | 0.00 | 18 | 1012.8 |
| 20260503211814 | 15 | 360 | 9.7 | 35.4 | 0.00 | 0.00 | 0.00 | 18 | 1012.8 |
| 20260503211557 | 15 | 360 | 12.9 | 35.4 | 0.00 | 0.00 | 0.00 | 19 | 1012.9 |
| 20260503211324 | 15 | 360 | 17.7 | 35.4 | 0.00 | 0.00 | 0.00 | 18 | 1012.8 |
| 20260503210829 | 15 | 111 | 16.1 | 33.8 | 0.00 | 0.00 | 0.00 | 19 | 1012.8 |
| 20260503210313 | 15 | 360 | 17.7 | 33.8 | 0.00 | 0.00 | 0.00 | 18 | 1012.8 |
| 20260503210040 | 15 | 360 | 17.7 | 38.6 | 0.00 | 0.00 | 0.00 | 17 | 1013.0 |
| 20260503205817 | 15 | 360 | 17.7 | 38.6 | 0.00 | 0.00 | 0.00 | 18 | 1012.8 |
| 20260503205327 | 15 | 360 | 16.1 | 38.6 | 0.00 | 0.00 | 0.00 | 19 | 1012.8 |
| 20260503204813 | 15 | 59 | 11.3 | 27.4 | 0.00 | 0.00 | 0.00 | 20 | 1012.9 |
| 20260503204615 | 15 | 360 | 16.1 | 27.4 | 0.00 | 0.00 | 0.00 | 18 | 1013.0 |
| 20260503204316 | 15 | 360 | 16.1 | 29.0 | 0.00 | 0.00 | 0.00 | 18 | 1012.8 |
| 20260503203822 | 15 | 5 | 11.3 | 37.0 | 0.00 | 0.00 | 0.00 | 19 | 1012.9 |
| 20260503203333 | 15 | 360 | 19.3 | 37.0 | 0.00 | 0.00 | 0.00 | 19 | 1012.9 |
| 20260503203014 | 15 | 65 | 14.5 | 33.8 | 0.00 | 0.00 | 0.00 | 19 | 1013.1 |
| 20260503202816 | 15 | 146 | 14.5 | 32.2 | 0.00 | 0.00 | 0.00 | 19 | 1012.8 |
| 20260503202321 | 15 | 360 | 9.7 | 33.8 | 0.00 | 0.00 | 0.00 | 19 | 1012.9 |
| 20260503201824 | 15 | 360 | 16.1 | 33.8 | 0.00 | 0.00 | 0.00 | 19 | 1013.0 |
| 20260503201511 | 14 | 360 | 8.0 | 30.6 | 0.00 | 0.00 | 0.00 | 20 | 1013.2 |
| 20260503201314 | 15 | 360 | 9.7 | 30.6 | 0.00 | 0.00 | 0.00 | 20 | 1013.0 |
| 20260503200818 | 14 | 58 | 12.9 | 38.6 | 0.00 | 0.00 | 0.00 | 21 | 1013.1 |
| 20260503200323 | 15 | 360 | 17.7 | 38.6 | 0.00 | 0.00 | 0.00 | 19 | 1013.1 |
| 20260503200025 | 15 | 360 | 17.7 | 38.6 | 0.00 | 0.00 | 0.00 | 19 | 1013.3 |
| 20260503195833 | 15 | 360 | 11.3 | 30.6 | 0.00 | 0.00 | 0.00 | 20 | 1013.1 |
| 20260503195318 | 14 | 360 | 14.5 | 37.0 | 0.00 | 0.00 | 0.00 | 20 | 1013.2 |
| 20260503194823 | 14 | 360 | 14.5 | 41.8 | 0.00 | 0.00 | 0.00 | 21 | 1013.2 |
| 20260503194541 | 13 | 360 | 19.3 | 41.8 | 0.00 | 0.00 | 0.00 | 20 | 1013.5 |
| 20260503194327 | 14 | 360 | 24.1 | 40.2 | 0.00 | 0.00 | 0.00 | 20 | 1013.3 |
| 20260503193813 | 14 | 5 | 9.7 | 24.1 | 0.00 | 0.00 | 0.00 | 20 | 1013.4 |
| 20260503193343 | 14 | 360 | 14.5 | 25.7 | 0.00 | 0.00 | 0.00 | 20 | 1013.4 |
| 20260503193034 | 14 | 360 | 14.5 | 25.7 | 0.00 | 0.00 | 0.00 | 20 | 1013.7 |
| 20260503192832 | 14 | 67 | 12.9 | 25.7 | 0.00 | 0.00 | 0.00 | 21 | 1013.5 |
| 20260503192317 | 14 | 360 | 16.1 | 32.2 | 0.00 | 0.00 | 0.00 | 20 | 1013.4 |
| 20260503191821 | 14 | 360 | 19.3 | 38.6 | 0.00 | 0.00 | 0.00 | 19 | 1013.5 |
| 20260503191601 | 14 | 360 | 11.3 | 38.6 | 0.00 | 0.00 | 0.00 | 19 | 1013.6 |
| 20260503191324 | 14 | 360 | 20.9 | 38.6 | 0.00 | 0.00 | 0.00 | 20 | 1013.3 |
| 20260503190834 | 14 | 360 | 12.9 | 30.6 | 0.00 | 0.00 | 0.00 | 19 | 1013.4 |
| 20260503190317 | 13 | 63 | 19.3 | 30.6 | 0.00 | 0.00 | 0.00 | 20 | 1013.6 |
| 20260503190049 | 13 | 360 | 11.3 | 33.8 | 0.00 | 0.00 | 0.00 | 20 | 1013.7 |
| 20260503185821 | 14 | 360 | 12.9 | 35.4 | 0.00 | 0.00 | 0.00 | 20 | 1013.5 |
| 20260503185331 | 13 | 360 | 22.5 | 37.0 | 0.00 | 0.00 | 0.00 | 19 | 1013.7 |
| 20260503184815 | 13 | 360 | 19.3 | 37.0 | 0.00 | 0.00 | 0.00 | 19 | 1013.7 |
| 20260503184502 | 13 | 9 | 17.7 | 33.8 | 0.00 | 0.00 | 0.00 | 20 | 1013.7 |
| 20260503184319 | 13 | 360 | 17.7 | 33.8 | 0.00 | 0.00 | 0.00 | 19 | 1013.8 |
| 20260503183849 | 14 | 360 | 11.3 | 30.6 | 0.00 | 0.00 | 0.00 | 19 | 1013.7 |
| 20260503183311 | 13 | 360 | 17.7 | 35.4 | 0.00 | 0.00 | 0.00 | 20 | 1013.8 |
| 20260503183104 | 13 | 360 | 16.1 | 35.4 | 0.00 | 0.00 | 0.00 | 20 | 1013.7 |
| 20260503182816 | 13 | 360 | 20.9 | 35.4 | 0.00 | 0.00 | 0.00 | 20 | 1013.9 |
| 20260503182319 | 13 | 360 | 14.5 | 30.6 | 0.00 | 0.00 | 0.00 | 20 | 1013.8 |
| 20260503181830 | 13 | 5 | 16.1 | 35.4 | 0.00 | 0.00 | 0.00 | 20 | 1013.8 |
| 20260503181611 | 13 | 121 | 16.1 | 35.4 | 0.00 | 0.00 | 0.00 | 21 | 1014.1 |
| 20260503181332 | 13 | 360 | 16.1 | 32.2 | 0.00 | 0.00 | 0.00 | 21 | 1013.9 |
| 20260503180822 | 13 | 360 | 14.5 | 38.6 | 0.00 | 0.00 | 0.00 | 20 | 1013.9 |
| 20260503180049 | 13 | 76 | 19.3 | 29.0 | 0.00 | 0.00 | 0.00 | 20 | 1014.0 |
| 20260503175815 | 13 | 360 | 17.7 | 29.0 | 0.00 | 0.00 | 0.00 | 20 | 1013.8 |
| 20260503175320 | 13 | 65 | 14.5 | 33.8 | 0.00 | 0.00 | 0.00 | 19 | 1013.9 |
| 20260503174831 | 13 | 360 | 14.5 | 32.2 | 0.00 | 0.00 | 0.00 | 21 | 1014.0 |
| 20260503174508 | 12 | 360 | 17.7 | 41.8 | 0.00 | 0.00 | 0.00 | 20 | 1014.1 |
| 20260503174315 | 12 | 360 | 14.5 | 41.8 | 0.00 | 0.00 | 0.00 | 21 | 1014.1 |
| 20260503173848 | 12 | 5 | 29.0 | 41.8 | 0.00 | 0.00 | 0.00 | 21 | 1013.9 |
| 20260503173321 | 12 | 360 | 19.3 | 38.6 | 0.00 | 0.00 | 0.00 | 21 | 1013.9 |
| 20260503173107 | 12 | 360 | 20.9 | 38.6 | 0.00 | 0.00 | 0.00 | 21 | 1014.0 |
| 20260503172824 | 12 | 71 | 22.5 | 38.6 | 0.00 | 0.00 | 0.00 | 20 | 1013.9 |
| 20260503172335 | 13 | 360 | 24.1 | 33.8 | 0.00 | 0.00 | 0.00 | 20 | 1014.0 |
| 20260503171820 | 12 | 360 | 11.3 | 29.0 | 0.00 | 0.00 | 0.00 | 21 | 1014.2 |
| 20260503171603 | 12 | 360 | 8.0 | 29.0 | 0.00 | 0.00 | 0.00 | 21 | 1014.3 |
| 20260503171320 | 12 | 360 | 17.7 | 29.0 | 0.00 | 0.00 | 0.00 | 22 | 1014.2 |
| 20260503170830 | 12 | 5 | 14.5 | 35.4 | 0.00 | 0.00 | 0.00 | 21 | 1014.1 |
| 20260503170315 | 12 | 360 | 14.5 | 35.4 | 0.00 | 0.00 | 0.00 | 22 | 1014.3 |